Time,TemperatureF,DewpointF,PressureIn,WindDirection,WindDirectionDegrees,WindSpeedMPH,WindSpeedGustMPH,Humidity,HourlyPrecipIn,Conditions,Clouds,dailyrainin,SoftwareType,DateUTC
2013-07-20 00:02:00,67.3,18.1,24.89,WSW,251,0.0,0.0,15,-99.99,,---,-99.99,VWS V14.01,2013-07-20 07:02:00,
2013-07-20 00:07:00,67.3,18.1,24.89,WSW,256,0.0,0.0,15,-99.99,,---,-99.99,VWS V14.01,2013-07-20 07:07:00,
2013-07-20 00:12:00,67.3,18.1,24.89,WSW,249,0.0,0.0,15,-99.99,,---,-99.99,VWS V14.01,2013-07-20 07:12:00,
2013-07-20 00:17:00,67.3,18.1,24.89,WSW,248,0.0,0.0,15,-99.99,,---,-99.99,VWS V14.01,2013-07-20 07:17:00,
2013-07-20 00:22:00,67.3,18.1,24.89,WSW,244,0.0,0.0,15,-99.99,,---,-99.99,VWS V14.01,2013-07-20 07:22:00,
2013-07-20 00:27:00,67.3,18.1,24.89,WSW,243,0.0,0.0,15,-99.99,,---,-99.99,VWS V14.01,2013-07-20 07:27:00,
2013-07-20 00:32:00,67.5,18.2,24.89,WSW,250,0.0,0.0,15,-99.99,,---,-99.99,VWS V14.01,2013-07-20 07:32:00,
2013-07-20 00:37:00,67.5,18.2,24.89,WSW,244,0.0,0.0,15,-99.99,,---,-99.99,VWS V14.01,2013-07-20 07:37:00,
2013-07-20 00:42:00,67.5,18.2,24.89,WSW,241,0.0,0.0,15,-99.99,,---,-99.99,VWS V14.01,2013-07-20 07:42:00,
2013-07-20 00:47:00,67.5,18.2,24.89,WSW,249,0.0,0.0,15,-99.99,,---,-99.99,VWS V14.01,2013-07-20 07:47:00,
2013-07-20 00:52:00,67.5,18.2,24.89,WSW,248,0.0,0.0,15,-99.99,,---,-99.99,VWS V14.01,2013-07-20 07:52:00,
2013-07-20 00:57:00,67.3,18.1,24.89,WSW,239,0.0,0.0,15,-99.99,,---,-99.99,VWS V14.01,2013-07-20 07:57:00,
2013-07-20 01:02:00,67.3,18.1,24.89,WSW,248,0.0,0.0,15,-99.99,,---,-99.99,VWS V14.01,2013-07-20 08:02:00,
2013-07-20 01:07:00,67.3,18.1,24.89,WSW,245,0.0,0.0,15,-99.99,,---,-99.99,VWS V14.01,2013-07-20 08:07:00,
2013-07-20 01:12:00,67.3,18.1,24.89,WSW,250,0.0,0.0,15,-99.99,,---,-99.99,VWS V14.01,2013-07-20 08:12:00,
2013-07-20 01:17:00,67.8,18.5,24.89,WSW,250,0.0,0.0,15,-99.99,,---,-99.99,VWS V14.01,2013-07-20 08:17:00,
2013-07-20 01:22:00,67.8,18.5,24.89,WSW,246,0.0,0.0,15,-99.99,,---,-99.99,VWS V14.01,2013-07-20 08:22:00,
2013-07-20 01:27:00,67.8,18.5,24.89,WSW,246,0.0,0.0,15,-99.99,,---,-99.99,VWS V14.01,2013-07-20 08:27:00,
2013-07-20 01:32:00,67.8,18.5,24.89,WSW,245,0.0,0.0,15,-99.99,,---,-99.99,VWS V14.01,2013-07-20 08:32:00,
2013-07-20 01:37:00,67.8,18.5,24.89,WSW,248,0.0,0.0,15,-99.99,,---,-99.99,VWS V14.01,2013-07-20 08:37:00,
2013-07-20 01:42:00,67.8,18.5,24.89,WSW,248,0.0,0.0,15,-99.99,,---,-99.99,VWS V14.01,2013-07-20 08:42:00,
2013-07-20 01:47:00,67.8,18.5,24.89,WSW,250,0.0,0.0,15,-99.99,,---,-99.99,VWS V14.01,2013-07-20 08:47:00,
2013-07-20 01:52:00,68.0,18.7,24.89,WSW,250,0.0,0.0,15,-99.99,,---,-99.99,VWS V14.01,2013-07-20 08:52:00,
2013-07-20 01:57:00,68.0,18.7,24.89,WSW,241,0.0,0.0,15,-99.99,,---,-99.99,VWS V14.01,2013-07-20 08:57:00,
2013-07-20 02:02:00,67.8,18.5,24.89,WSW,247,0.0,0.0,15,-99.99,,---,-99.99,VWS V14.01,2013-07-20 09:02:00,
2013-07-20 02:07:00,67.8,18.5,24.89,WSW,240,0.0,0.0,15,-99.99,,---,-99.99,VWS V14.01,2013-07-20 09:07:00,
2013-07-20 02:12:00,67.8,18.5,24.89,WSW,238,0.0,0.0,15,-99.99,,---,-99.99,VWS V14.01,2013-07-20 09:12:00,
2013-07-20 02:17:00,67.8,18.5,24.89,WSW,244,0.0,0.0,15,-99.99,,---,-99.99,VWS V14.01,2013-07-20 09:17:00,
2013-07-20 02:22:00,67.8,18.5,24.89,WSW,249,0.0,0.0,15,-99.99,,---,-99.99,VWS V14.01,2013-07-20 09:22:00,
2013-07-20 02:27:00,67.8,18.5,24.89,West,262,0.0,0.0,15,-99.99,,---,-99.99,VWS V14.01,2013-07-20 09:27:00,
2013-07-20 02:32:00,67.6,18.4,24.89,WSW,255,0.0,0.0,15,-99.99,,---,-99.99,VWS V14.01,2013-07-20 09:32:00,
2013-07-20 02:37:00,67.6,18.4,24.89,WSW,250,0.0,0.0,15,-99.99,,---,-99.99,VWS V14.01,2013-07-20 09:37:00,
2013-07-20 02:42:00,67.6,18.4,24.89,WSW,248,0.0,0.0,15,-99.99,,---,-99.99,VWS V14.01,2013-07-20 09:42:00,
2013-07-20 02:47:00,67.6,18.4,24.89,WSW,247,0.0,0.0,15,-99.99,,---,-99.99,VWS V14.01,2013-07-20 09:47:00,
2013-07-20 02:52:00,68.2,18.8,24.89,WSW,250,0.0,0.0,15,-99.99,,---,-99.99,VWS V14.01,2013-07-20 09:52:00,
2013-07-20 02:57:00,68.2,18.8,24.89,WSW,250,0.0,0.0,15,-99.99,,---,-99.99,VWS V14.01,2013-07-20 09:57:00,
2013-07-20 03:02:00,68.2,18.8,24.89,WSW,250,0.0,0.0,15,-99.99,,---,-99.99,VWS V14.01,2013-07-20 10:02:00,
2013-07-20 03:07:00,68.2,18.8,24.89,WSW,255,0.0,0.0,15,-99.99,,---,-99.99,VWS V14.01,2013-07-20 10:07:00,
2013-07-20 03:12:00,68.2,18.8,24.89,WSW,251,0.0,0.0,15,-99.99,,---,-99.99,VWS V14.01,2013-07-20 10:12:00,
2013-07-20 03:17:00,68.4,19.0,24.89,WSW,254,0.0,0.0,15,-99.99,,---,-99.99,VWS V14.01,2013-07-20 10:17:00,
2013-07-20 03:22:00,68.4,19.0,24.89,WSW,254,0.0,0.0,15,-99.99,,---,-99.99,VWS V14.01,2013-07-20 10:22:00,
2013-07-20 03:27:00,68.4,19.0,24.89,WSW,254,0.0,0.0,15,-99.99,,---,-99.99,VWS V14.01,2013-07-20 10:27:00,
2013-07-20 03:32:00,68.4,19.0,24.89,WSW,257,0.0,0.0,15,-99.99,,---,-99.99,VWS V14.01,2013-07-20 10:32:00,
2013-07-20 03:37:00,68.4,19.0,24.89,WSW,258,0.0,0.0,15,-99.99,,---,-99.99,VWS V14.01,2013-07-20 10:37:00,
2013-07-20 03:42:00,68.9,19.4,24.89,WSW,256,0.0,0.0,15,-99.99,,---,-99.99,VWS V14.01,2013-07-20 10:42:00,
2013-07-20 03:47:00,68.9,19.4,24.89,West,259,0.0,0.0,15,-99.99,,---,-99.99,VWS V14.01,2013-07-20 10:47:00,
2013-07-20 03:52:00,68.9,19.4,24.89,WSW,258,0.0,0.0,15,-99.99,,---,-99.99,VWS V14.01,2013-07-20 10:52:00,
2013-07-20 03:57:00,68.9,19.4,24.89,WSW,258,0.0,0.0,15,-99.99,,---,-99.99,VWS V14.01,2013-07-20 10:57:00,
2013-07-20 04:02:00,69.3,19.7,24.89,WSW,258,0.0,0.0,15,-99.99,,---,-99.99,VWS V14.01,2013-07-20 11:02:00,
2013-07-20 04:07:00,69.3,19.7,24.89,WSW,257,0.0,0.0,15,-99.99,,---,-99.99,VWS V14.01,2013-07-20 11:07:00,
2013-07-20 04:12:00,69.3,19.7,24.89,WSW,256,0.0,0.0,15,-99.99,,---,-99.99,VWS V14.01,2013-07-20 11:12:00,
2013-07-20 04:17:00,69.3,19.7,24.89,WSW,253,0.0,0.0,15,-99.99,,---,-99.99,VWS V14.01,2013-07-20 11:17:00,
2013-07-20 04:22:00,69.3,19.7,24.89,WSW,253,0.0,0.0,15,-99.99,,---,-99.99,VWS V14.01,2013-07-20 11:22:00,
2013-07-20 04:27:00,69.6,20.0,24.89,WSW,257,0.0,0.0,15,-99.99,,---,-99.99,VWS V14.01,2013-07-20 11:27:00,
2013-07-20 04:32:00,69.6,20.0,24.89,WSW,256,0.0,0.0,15,-99.99,,---,-99.99,VWS V14.01,2013-07-20 11:32:00,
2013-07-20 04:37:00,69.6,20.0,24.89,WSW,258,0.0,0.0,15,-99.99,,---,-99.99,VWS V14.01,2013-07-20 11:37:00,
2013-07-20 04:42:00,69.6,20.0,24.89,WSW,258,0.0,0.0,15,-99.99,,---,-99.99,VWS V14.01,2013-07-20 11:42:00,
2013-07-20 04:47:00,69.6,20.0,24.89,WSW,258,0.0,0.0,15,-99.99,,---,-99.99,VWS V14.01,2013-07-20 11:47:00,
2013-07-20 04:52:00,69.8,18.5,24.89,WSW,258,0.0,0.0,14,-99.99,,---,-99.99,VWS V14.01,2013-07-20 11:52:00,
2013-07-20 04:57:00,69.6,20.0,24.89,WSW,258,0.0,0.0,15,-99.99,,---,-99.99,VWS V14.01,2013-07-20 11:57:00,
2013-07-20 05:02:00,69.6,20.0,24.89,WSW,258,0.0,0.0,15,-99.99,,---,-99.99,VWS V14.01,2013-07-20 12:02:00,
2013-07-20 05:07:00,69.6,20.0,24.89,WSW,258,0.0,0.0,15,-99.99,,---,-99.99,VWS V14.01,2013-07-20 12:07:00,
2013-07-20 05:12:00,69.6,20.0,24.89,WSW,258,0.0,0.0,15,-99.99,,---,-99.99,VWS V14.01,2013-07-20 12:12:00,
2013-07-20 05:17:00,69.6,20.0,24.89,WSW,258,0.0,0.0,15,-99.99,,---,-99.99,VWS V14.01,2013-07-20 12:17:00,
2013-07-20 05:22:00,69.6,20.0,24.89,WSW,258,0.0,0.0,15,-99.99,,---,-99.99,VWS V14.01,2013-07-20 12:22:00,
2013-07-20 05:27:00,69.6,20.0,24.89,WSW,258,0.0,0.0,15,-99.99,,---,-99.99,VWS V14.01,2013-07-20 12:27:00,
2013-07-20 05:32:00,69.6,20.0,24.89,WSW,258,0.0,0.0,15,-99.99,,---,-99.99,VWS V14.01,2013-07-20 12:32:00,
2013-07-20 05:37:00,69.4,19.8,24.89,WSW,258,0.0,0.0,15,-99.99,,---,-99.99,VWS V14.01,2013-07-20 12:37:00,
2013-07-20 05:42:00,69.4,19.8,24.89,WSW,258,0.0,0.0,15,-99.99,,---,-99.99,VWS V14.01,2013-07-20 12:42:00,
2013-07-20 05:47:00,69.4,19.8,24.89,West,259,0.0,0.0,15,-99.99,,---,-99.99,VWS V14.01,2013-07-20 12:47:00,
2013-07-20 05:52:00,69.4,19.8,24.89,West,259,0.0,0.0,15,-99.99,,---,-99.99,VWS V14.01,2013-07-20 12:52:00,
2013-07-20 05:57:00,69.4,19.8,24.89,West,260,0.0,0.0,15,-99.99,,---,-99.99,VWS V14.01,2013-07-20 12:57:00,
2013-07-20 06:02:00,70.0,18.6,24.89,West,260,0.0,0.0,14,-99.99,,---,-99.99,VWS V14.01,2013-07-20 13:02:00,
2013-07-20 06:07:00,70.0,18.6,24.89,West,260,0.0,0.0,14,-99.99,,---,-99.99,VWS V14.01,2013-07-20 13:07:00,
2013-07-20 06:12:00,70.2,18.8,24.89,WSW,258,0.0,0.0,14,-99.99,,---,-99.99,VWS V14.01,2013-07-20 13:12:00,
2013-07-20 06:17:00,70.2,18.8,24.89,WSW,257,0.0,0.0,14,-99.99,,---,-99.99,VWS V14.01,2013-07-20 13:17:00,
2013-07-20 06:22:00,70.2,18.8,24.89,WSW,254,0.0,0.0,14,-99.99,,---,-99.99,VWS V14.01,2013-07-20 13:22:00,
2013-07-20 06:27:00,70.3,18.9,24.89,WSW,250,0.0,0.0,14,-99.99,,---,-99.99,VWS V14.01,2013-07-20 13:27:00,
2013-07-20 06:32:00,70.3,18.9,24.89,WSW,250,0.0,0.0,14,-99.99,,---,-99.99,VWS V14.01,2013-07-20 13:32:00,
2013-07-20 06:37:00,70.3,18.9,24.89,WSW,243,0.0,0.0,14,-99.99,,---,-99.99,VWS V14.01,2013-07-20 13:37:00,
2013-07-20 06:42:00,70.3,18.9,24.89,WSW,239,0.0,0.0,14,-99.99,,---,-99.99,VWS V14.01,2013-07-20 13:42:00,
2013-07-20 06:47:00,70.3,18.9,24.89,WSW,241,0.0,0.0,14,-99.99,,---,-99.99,VWS V14.01,2013-07-20 13:47:00,
2013-07-20 06:52:00,70.3,18.9,24.89,WSW,239,0.0,0.0,14,-99.99,,---,-99.99,VWS V14.01,2013-07-20 13:52:00,
2013-07-20 06:57:00,70.3,18.9,24.89,WSW,240,0.0,0.0,14,-99.99,,---,-99.99,VWS V14.01,2013-07-20 13:57:00,
2013-07-20 07:02:00,70.3,18.9,24.89,WSW,246,0.0,0.0,14,-99.99,,---,-99.99,VWS V14.01,2013-07-20 14:02:00,
2013-07-20 07:07:00,70.3,18.9,24.89,WSW,243,0.0,0.0,14,-99.99,,---,-99.99,VWS V14.01,2013-07-20 14:07:00,
2013-07-20 07:12:00,70.9,19.4,24.89,WSW,246,0.0,0.0,14,-99.99,,---,-99.99,VWS V14.01,2013-07-20 14:12:00,
2013-07-20 07:17:00,70.9,19.4,24.89,WSW,243,0.0,0.0,14,-99.99,,---,-99.99,VWS V14.01,2013-07-20 14:17:00,
2013-07-20 07:22:00,70.9,19.4,24.89,West,260,0.0,0.0,14,-99.99,,---,-99.99,VWS V14.01,2013-07-20 14:22:00,
2013-07-20 07:27:00,70.5,19.1,24.89,WSW,250,0.0,0.0,14,-99.99,,---,-99.99,VWS V14.01,2013-07-20 14:27:00,
2013-07-20 07:32:00,70.5,19.1,24.89,WSW,252,0.0,0.0,14,-99.99,,---,-99.99,VWS V14.01,2013-07-20 14:32:00,
2013-07-20 07:37:00,70.5,19.1,24.89,WSW,251,0.0,0.0,14,-99.99,,---,-99.99,VWS V14.01,2013-07-20 14:37:00,
2013-07-20 07:43:00,70.5,19.1,24.89,WSW,253,0.0,0.0,14,-99.99,,---,-99.99,VWS V14.01,2013-07-20 14:43:00,
2013-07-20 07:48:00,70.5,19.1,24.89,WSW,257,0.0,0.0,14,-99.99,,---,-99.99,VWS V14.01,2013-07-20 14:48:00,
2013-07-20 07:53:00,70.5,19.1,24.89,WSW,257,0.0,0.0,14,-99.99,,---,-99.99,VWS V14.01,2013-07-20 14:53:00,
2013-07-20 07:58:00,72.5,20.6,24.89,WSW,255,0.0,0.0,14,-99.99,,---,-99.99,VWS V14.01,2013-07-20 14:58:00,
2013-07-20 08:03:00,72.5,20.6,24.89,WSW,256,0.0,0.0,14,-99.99,,---,-99.99,VWS V14.01,2013-07-20 15:03:00,
2013-07-20 08:08:00,72.5,20.6,24.89,West,265,0.0,0.0,14,-99.99,,---,-99.99,VWS V14.01,2013-07-20 15:08:00,
2013-07-20 08:13:00,72.5,20.6,24.89,WSW,253,0.0,0.0,14,-99.99,,---,-99.99,VWS V14.01,2013-07-20 15:13:00,
2013-07-20 08:18:00,72.5,20.6,24.89,West,261,0.0,0.0,14,-99.99,,---,-99.99,VWS V14.01,2013-07-20 15:18:00,
2013-07-20 08:23:00,74.5,25.4,24.89,West,264,0.0,0.0,16,-99.99,,---,-99.99,VWS V14.01,2013-07-20 15:23:00,
2013-07-20 08:28:00,74.5,25.4,24.89,West,275,0.0,0.0,16,-99.99,,---,-99.99,VWS V14.01,2013-07-20 15:28:00,
2013-07-20 08:33:00,74.5,25.4,24.89,West,265,0.0,0.0,16,-99.99,,---,-99.99,VWS V14.01,2013-07-20 15:33:00,
2013-07-20 08:38:00,74.5,25.4,24.89,West,277,0.0,0.0,16,-99.99,,---,-99.99,VWS V14.01,2013-07-20 15:38:00,
2013-07-20 08:43:00,76.3,25.3,24.89,West,280,0.0,0.0,15,-99.99,,---,-99.99,VWS V14.01,2013-07-20 15:43:00,
2013-07-20 08:48:00,76.5,25.4,24.89,West,260,0.0,0.0,15,-99.99,,---,-99.99,VWS V14.01,2013-07-20 15:48:00,
2013-07-20 08:53:00,76.5,25.4,24.89,West,263,0.0,0.0,15,-99.99,,---,-99.99,VWS V14.01,2013-07-20 15:53:00,
2013-07-20 08:58:00,76.5,25.4,24.89,West,277,0.0,0.0,15,-99.99,,---,-99.99,VWS V14.01,2013-07-20 15:58:00,
2013-07-20 09:03:00,76.5,25.4,24.89,SW,231,0.0,0.0,15,-99.99,,---,-99.99,VWS V14.01,2013-07-20 16:03:00,
2013-07-20 09:08:00,78.6,27.1,24.89,West,275,0.0,0.0,15,-99.99,,---,-99.99,VWS V14.01,2013-07-20 16:08:00,
2013-07-20 09:13:00,78.6,27.1,24.89,North,357,0.0,0.0,15,-99.99,,---,-99.99,VWS V14.01,2013-07-20 16:13:00,
2013-07-20 09:18:00,80.8,27.2,24.89,ENE,73,0.0,0.0,14,-99.99,,---,-99.99,VWS V14.01,2013-07-20 16:18:00,
2013-07-20 09:23:00,81.9,28.0,24.89,NNE,12,0.0,0.0,14,-99.99,,---,-99.99,VWS V14.01,2013-07-20 16:23:00,
2013-07-20 09:28:00,81.9,28.0,24.89,WNW,290,0.0,0.0,14,-99.99,,---,-99.99,VWS V14.01,2013-07-20 16:28:00,
2013-07-20 09:33:00,81.3,27.6,24.89,NNE,28,0.0,0.0,14,-99.99,,---,-99.99,VWS V14.01,2013-07-20 16:33:00,
2013-07-20 09:38:00,81.3,27.6,24.89,NE,37,0.0,0.0,14,-99.99,,---,-99.99,VWS V14.01,2013-07-20 16:38:00,
2013-07-20 09:43:00,82.4,28.5,24.89,NNE,14,0.0,0.0,14,-99.99,,---,-99.99,VWS V14.01,2013-07-20 16:43:00,
2013-07-20 09:48:00,82.4,28.5,24.89,NE,41,0.0,0.0,14,-99.99,,---,-99.99,VWS V14.01,2013-07-20 16:48:00,
2013-07-20 09:53:00,82.2,28.3,24.89,North,2,0.0,0.0,14,-99.99,,---,-99.99,VWS V14.01,2013-07-20 16:53:00,
2013-07-20 09:58:00,82.4,28.5,24.89,NNW,340,0.0,0.0,14,-99.99,,---,-99.99,VWS V14.01,2013-07-20 16:58:00,
2013-07-20 10:03:00,82.4,28.5,24.89,ENE,72,0.0,0.0,14,-99.99,,---,-99.99,VWS V14.01,2013-07-20 17:03:00,
2013-07-20 10:08:00,83.8,29.6,24.89,NNE,17,0.0,0.0,14,-99.99,,---,-99.99,VWS V14.01,2013-07-20 17:08:00,
2013-07-20 10:13:00,83.8,29.6,24.89,ENE,69,0.0,0.0,14,-99.99,,---,-99.99,VWS V14.01,2013-07-20 17:13:00,
2013-07-20 10:18:00,84.2,28.1,24.89,ENE,57,0.0,0.0,13,-99.99,,---,-99.99,VWS V14.01,2013-07-20 17:18:00,
2013-07-20 10:23:00,85.1,28.8,24.89,ENE,61,0.0,0.0,13,-99.99,,---,-99.99,VWS V14.01,2013-07-20 17:23:00,
2013-07-20 10:28:00,85.1,28.8,24.89,NE,35,0.0,0.0,13,-99.99,,---,-99.99,VWS V14.01,2013-07-20 17:28:00,
2013-07-20 10:33:00,84.9,28.6,24.89,East,79,0.0,0.0,13,-99.99,,---,-99.99,VWS V14.01,2013-07-20 17:33:00,
2013-07-20 10:38:00,84.9,28.6,24.89,NNE,13,0.0,0.0,13,-99.99,,---,-99.99,VWS V14.01,2013-07-20 17:38:00,
2013-07-20 10:43:00,84.2,28.1,24.89,NW,325,0.0,0.0,13,-99.99,,---,-99.99,VWS V14.01,2013-07-20 17:43:00,
2013-07-20 10:48:00,84.2,28.1,24.89,ENE,59,0.0,0.0,13,-99.99,,---,-99.99,VWS V14.01,2013-07-20 17:48:00,
2013-07-20 10:53:00,84.4,28.2,24.89,East,91,0.0,0.0,13,-99.99,,---,-99.99,VWS V14.01,2013-07-20 17:53:00,
2013-07-20 10:58:00,84.6,28.4,24.89,NE,34,0.0,0.0,13,-99.99,,---,-99.99,VWS V14.01,2013-07-20 17:58:00,
2013-07-20 11:03:00,85.1,28.8,24.89,ENE,62,0.0,0.0,13,-99.99,,---,-99.99,VWS V14.01,2013-07-20 18:03:00,
2013-07-20 11:08:00,85.1,28.8,24.89,ENE,66,0.0,0.0,13,-99.99,,---,-99.99,VWS V14.01,2013-07-20 18:08:00,
2013-07-20 11:13:00,85.1,28.8,24.89,East,79,0.0,0.0,13,-99.99,,---,-99.99,VWS V14.01,2013-07-20 18:13:00,
2013-07-20 11:18:00,84.9,28.6,24.89,East,79,0.0,0.0,13,-99.99,,---,-99.99,VWS V14.01,2013-07-20 18:18:00,
2013-07-20 11:24:00,85.3,28.9,24.89,NE,46,0.0,0.0,13,-99.99,,---,-99.99,VWS V14.01,2013-07-20 18:24:00,
2013-07-20 11:29:00,85.3,28.9,24.89,East,84,0.0,0.0,13,-99.99,,---,-99.99,VWS V14.01,2013-07-20 18:29:00,
2013-07-20 11:34:00,84.9,28.6,24.89,NE,46,0.0,0.0,13,-99.99,,---,-99.99,VWS V14.01,2013-07-20 18:34:00,
2013-07-20 11:39:00,84.9,28.6,24.89,North,2,0.0,0.0,13,-99.99,,---,-99.99,VWS V14.01,2013-07-20 18:39:00,
2013-07-20 11:44:00,85.3,28.9,24.89,East,92,0.0,0.0,13,-99.99,,---,-99.99,VWS V14.01,2013-07-20 18:44:00,
2013-07-20 11:49:00,85.3,28.9,24.89,East,85,0.0,0.0,13,-99.99,,---,-99.99,VWS V14.01,2013-07-20 18:49:00,
2013-07-20 11:54:00,85.1,28.8,24.89,East,85,0.0,0.0,13,-99.99,,---,-99.99,VWS V14.01,2013-07-20 18:54:00,
2013-07-20 11:59:00,84.9,28.6,24.89,NNE,28,0.0,0.0,13,-99.99,,---,-99.99,VWS V14.01,2013-07-20 18:59:00,
2013-07-20 12:04:00,84.7,28.5,24.89,ESE,119,0.0,0.0,13,-99.99,,---,-99.99,VWS V14.01,2013-07-20 19:04:00,
2013-07-20 12:09:00,84.6,28.4,24.89,East,96,0.0,0.0,13,-99.99,,---,-99.99,VWS V14.01,2013-07-20 19:09:00,
2013-07-20 12:14:00,84.6,28.4,24.89,NNE,32,0.0,0.0,13,-99.99,,---,-99.99,VWS V14.01,2013-07-20 19:14:00,
2013-07-20 12:19:00,84.7,28.5,24.89,NE,50,0.0,0.0,13,-99.99,,---,-99.99,VWS V14.01,2013-07-20 19:19:00,
2013-07-20 12:24:00,83.8,29.6,24.89,NE,36,0.0,0.0,14,-99.99,,---,-99.99,VWS V14.01,2013-07-20 19:24:00,
2013-07-20 12:30:00,83.8,29.6,24.89,NE,36,0.0,0.0,14,-99.99,,---,-99.99,VWS V14.01,2013-07-20 19:30:00,
2013-07-20 12:35:00,85.1,28.8,24.89,NE,37,0.0,0.0,13,-99.99,,---,-99.99,VWS V14.01,2013-07-20 19:35:00,
2013-07-20 12:40:00,85.1,28.8,24.89,NNE,32,0.0,0.0,13,-99.99,,---,-99.99,VWS V14.01,2013-07-20 19:40:00,
2013-07-20 12:45:00,85.3,28.9,24.89,NE,35,0.0,0.0,13,-99.99,,---,-99.99,VWS V14.01,2013-07-20 19:45:00,
2013-07-20 12:50:00,85.3,28.9,24.89,NNE,30,0.0,0.0,13,-99.99,,---,-99.99,VWS V14.01,2013-07-20 19:50:00,
2013-07-20 12:55:00,85.3,28.9,24.89,ENE,75,0.0,0.0,13,-99.99,,---,-99.99,VWS V14.01,2013-07-20 19:55:00,
2013-07-20 13:00:00,86.5,29.9,24.89,ESE,109,0.0,0.0,13,-99.99,,---,-99.99,VWS V14.01,2013-07-20 20:00:00,
2013-07-20 13:05:00,86.5,29.9,24.89,ESE,109,0.0,0.0,13,-99.99,,---,-99.99,VWS V14.01,2013-07-20 20:05:00,
2013-07-20 13:10:00,88.3,31.3,24.89,ESE,105,0.0,0.0,13,-99.99,,---,-99.99,VWS V14.01,2013-07-20 20:10:00,
2013-07-20 13:15:00,88.3,31.3,24.89,SE,141,0.0,0.0,13,-99.99,,---,-99.99,VWS V14.01,2013-07-20 20:15:00,
2013-07-20 13:20:00,89.8,30.5,24.89,ESE,122,0.0,0.0,12,-99.99,,---,-99.99,VWS V14.01,2013-07-20 20:20:00,
2013-07-20 13:26:00,91.2,31.6,24.89,East,100,0.0,0.0,12,-99.99,,---,-99.99,VWS V14.01,2013-07-20 20:26:00,
2013-07-20 13:31:00,91.2,31.6,24.89,ESE,111,0.0,0.0,12,-99.99,,---,-99.99,VWS V14.01,2013-07-20 20:31:00,
2013-07-20 13:36:00,91.8,32.0,24.89,ESE,116,0.0,0.0,12,-99.99,,---,-99.99,VWS V14.01,2013-07-20 20:36:00,
2013-07-20 13:41:00,91.8,32.0,24.89,East,100,0.0,0.0,12,-99.99,,---,-99.99,VWS V14.01,2013-07-20 20:41:00,
2013-07-20 13:46:00,91.6,31.9,24.89,East,100,0.0,0.0,12,-99.99,,---,-99.99,VWS V14.01,2013-07-20 20:46:00,
2013-07-20 13:51:00,91.6,31.9,24.89,NE,48,0.0,0.0,12,-99.99,,---,-99.99,VWS V14.01,2013-07-20 20:51:00,
2013-07-20 13:56:00,91.6,31.9,24.89,East,89,0.0,0.0,12,-99.99,,---,-99.99,VWS V14.01,2013-07-20 20:56:00,
2013-07-20 14:01:00,91.4,31.7,24.89,East,93,0.0,0.0,12,-99.99,,---,-99.99,VWS V14.01,2013-07-20 21:01:00,
2013-07-20 14:06:00,91.4,31.7,24.89,ENE,73,0.0,0.0,12,-99.99,,---,-99.99,VWS V14.01,2013-07-20 21:06:00,
2013-07-20 14:11:00,91.0,31.4,24.89,East,82,0.0,0.0,12,-99.99,,---,-99.99,VWS V14.01,2013-07-20 21:11:00,
2013-07-20 14:16:00,91.0,31.4,24.89,ESE,120,0.0,0.0,12,-99.99,,---,-99.99,VWS V14.01,2013-07-20 21:16:00,
2013-07-20 14:21:00,89.6,30.3,24.89,ESE,120,0.0,0.0,12,-99.99,,---,-99.99,VWS V14.01,2013-07-20 21:21:00,
2013-07-20 14:26:00,89.2,32.0,24.89,SE,141,0.0,0.0,13,-99.99,,---,-99.99,VWS V14.01,2013-07-20 21:26:00,
2013-07-20 14:31:00,89.2,32.0,24.89,ENE,75,0.0,0.0,13,-99.99,,---,-99.99,VWS V14.01,2013-07-20 21:31:00,
2013-07-20 14:36:00,90.1,30.7,24.89,ENE,69,0.0,0.0,12,-99.99,,---,-99.99,VWS V14.01,2013-07-20 21:36:00,
2013-07-20 14:41:00,90.1,30.7,24.89,ENE,64,0.0,0.0,12,-99.99,,---,-99.99,VWS V14.01,2013-07-20 21:41:00,
2013-07-20 14:47:00,90.3,30.9,24.89,SE,125,0.0,0.0,12,-99.99,,---,-99.99,VWS V14.01,2013-07-20 21:47:00,
2013-07-20 14:52:00,91.6,31.9,24.89,East,85,0.0,0.0,12,-99.99,,---,-99.99,VWS V14.01,2013-07-20 21:52:00,
2013-07-20 14:57:00,91.0,31.4,24.89,East,85,0.0,0.0,12,-99.99,,---,-99.99,VWS V14.01,2013-07-20 21:57:00,
2013-07-20 15:02:00,91.8,32.0,24.89,ENE,67,0.0,0.0,12,-99.99,,---,-99.99,VWS V14.01,2013-07-20 22:02:00,
2013-07-20 15:07:00,91.8,32.0,24.89,East,98,0.0,0.0,12,-99.99,,---,-99.99,VWS V14.01,2013-07-20 22:07:00,
2013-07-20 15:12:00,90.3,30.9,24.89,East,90,0.0,0.0,12,-99.99,,---,-99.99,VWS V14.01,2013-07-20 22:12:00,
2013-07-20 15:18:00,90.1,30.7,24.89,ESE,111,0.0,0.0,12,-99.99,,---,-99.99,VWS V14.01,2013-07-20 22:18:00,
2013-07-20 15:23:00,90.1,30.7,24.89,SE,144,0.0,0.0,12,-99.99,,---,-99.99,VWS V14.01,2013-07-20 22:23:00,
2013-07-20 15:28:00,91.2,31.6,24.89,ESE,119,0.0,0.0,12,-99.99,,---,-99.99,VWS V14.01,2013-07-20 22:28:00,
2013-07-20 15:33:00,91.2,31.6,24.89,ENE,74,0.0,0.0,12,-99.99,,---,-99.99,VWS V14.01,2013-07-20 22:33:00,
2013-07-20 15:38:00,90.1,30.7,24.89,ENE,74,0.0,0.0,12,-99.99,,---,-99.99,VWS V14.01,2013-07-20 22:38:00,
2013-07-20 15:44:00,88.5,31.5,24.89,East,89,0.0,0.0,13,-99.99,,---,-99.99,VWS V14.01,2013-07-20 22:44:00,
2013-07-20 15:49:00,88.5,31.5,24.89,ESE,103,0.0,0.0,13,-99.99,,---,-99.99,VWS V14.01,2013-07-20 22:49:00,
2013-07-20 15:54:00,86.7,30.0,24.89,ESE,120,0.0,0.0,13,-99.99,,---,-99.99,VWS V14.01,2013-07-20 22:54:00,
2013-07-20 15:59:00,86.7,30.0,24.89,East,100,0.0,0.0,13,-99.99,,---,-99.99,VWS V14.01,2013-07-20 22:59:00,
2013-07-20 16:04:00,84.7,28.5,24.89,SE,126,0.0,0.0,13,-99.99,,---,-99.99,VWS V14.01,2013-07-20 23:04:00,
2013-07-20 16:09:00,83.7,29.5,24.89,ESE,106,0.0,0.0,14,-99.99,,---,-99.99,VWS V14.01,2013-07-20 23:09:00,
2013-07-20 16:14:00,83.3,29.2,24.89,East,92,0.0,0.0,14,-99.99,,---,-99.99,VWS V14.01,2013-07-20 23:14:00,
2013-07-20 16:19:00,81.7,27.9,24.89,ESE,108,0.0,0.0,14,-99.99,,---,-99.99,VWS V14.01,2013-07-20 23:19:00,
2013-07-20 16:24:00,81.7,27.9,24.89,East,98,0.0,0.0,14,-99.99,,---,-99.99,VWS V14.01,2013-07-20 23:24:00,
2013-07-20 16:29:00,80.2,28.4,24.89,ESE,109,0.0,0.0,15,-99.99,,---,-99.99,VWS V14.01,2013-07-20 23:29:00,
2013-07-20 16:34:00,81.0,27.3,24.89,ESE,122,0.0,0.0,14,-99.99,,---,-99.99,VWS V14.01,2013-07-20 23:34:00,
2013-07-20 16:39:00,81.0,27.3,24.89,ESE,116,0.0,0.0,14,-99.99,,---,-99.99,VWS V14.01,2013-07-20 23:39:00,
2013-07-20 16:44:00,81.1,27.5,24.89,ESE,110,0.0,0.0,14,-99.99,,---,-99.99,VWS V14.01,2013-07-20 23:44:00,
2013-07-20 16:50:00,80.8,27.2,24.89,ENE,63,0.0,0.0,14,-99.99,,---,-99.99,VWS V14.01,2013-07-20 23:50:00,
2013-07-20 16:55:00,80.4,28.6,24.89,ENE,63,0.0,0.0,15,-99.99,,---,-99.99,VWS V14.01,2013-07-20 23:55:00,
2013-07-20 17:00:00,80.4,28.6,24.89,ESE,119,0.0,0.0,15,-99.99,,---,-99.99,VWS V14.01,2013-07-21 00:00:00,
2013-07-20 17:05:00,80.4,28.6,24.89,East,96,0.0,0.0,15,-99.99,,---,-99.99,VWS V14.01,2013-07-21 00:05:00,
2013-07-20 17:10:00,80.1,28.3,24.89,ENE,75,0.0,0.0,15,-99.99,,---,-99.99,VWS V14.01,2013-07-21 00:10:00,
2013-07-20 17:15:00,80.1,28.3,24.89,ESE,106,0.0,0.0,15,-99.99,,---,-99.99,VWS V14.01,2013-07-21 00:15:00,
2013-07-20 17:20:00,79.5,27.9,24.89,SE,125,0.0,0.0,15,-99.99,,---,-99.99,VWS V14.01,2013-07-21 00:20:00,
2013-07-20 17:25:00,79.7,28.0,24.89,East,99,0.0,0.0,15,-99.99,,---,-99.99,VWS V14.01,2013-07-21 00:25:00,
2013-07-20 17:30:00,80.1,28.3,24.89,East,99,0.0,0.0,15,-99.99,,---,-99.99,VWS V14.01,2013-07-21 00:30:00,
2013-07-20 17:36:00,79.9,28.1,24.89,SSE,167,0.0,0.0,15,-99.99,,---,-99.99,VWS V14.01,2013-07-21 00:36:00,
2013-07-20 17:41:00,79.9,28.1,24.89,SSE,163,0.0,0.0,15,-99.99,,---,-99.99,VWS V14.01,2013-07-21 00:41:00,
2013-07-20 17:46:00,79.0,27.4,24.89,WSW,252,0.0,0.0,15,-99.99,,---,-99.99,VWS V14.01,2013-07-21 00:46:00,
2013-07-20 17:51:00,79.0,27.4,24.89,West,276,0.0,0.0,15,-99.99,,---,-99.99,VWS V14.01,2013-07-21 00:51:00,
2013-07-20 17:56:00,77.9,26.6,24.89,SSW,204,0.0,0.0,15,-99.99,,---,-99.99,VWS V14.01,2013-07-21 00:56:00,
2013-07-20 18:01:00,78.3,26.9,24.89,South,172,0.0,0.0,15,-99.99,,---,-99.99,VWS V14.01,2013-07-21 01:01:00,
2013-07-20 18:07:00,78.3,26.9,24.89,SSE,162,0.0,0.0,15,-99.99,,---,-99.99,VWS V14.01,2013-07-21 01:07:00,
2013-07-20 18:12:00,78.4,27.0,24.89,SSE,166,0.0,0.0,15,-99.99,,---,-99.99,VWS V14.01,2013-07-21 01:12:00,
2013-07-20 18:17:00,78.4,27.0,24.89,South,177,0.0,0.0,15,-99.99,,---,-99.99,VWS V14.01,2013-07-21 01:17:00,
2013-07-20 18:22:00,78.3,26.9,24.89,South,169,0.0,0.0,15,-99.99,,---,-99.99,VWS V14.01,2013-07-21 01:22:00,
2013-07-20 18:27:00,78.6,27.1,24.89,SSE,160,0.0,0.0,15,-99.99,,---,-99.99,VWS V14.01,2013-07-21 01:27:00,
2013-07-20 18:32:00,78.3,26.9,24.89,SSE,160,0.0,0.0,15,-99.99,,---,-99.99,VWS V14.01,2013-07-21 01:32:00,
2013-07-20 18:37:00,77.2,26.0,24.89,SSE,158,0.0,0.0,15,-99.99,,---,-99.99,VWS V14.01,2013-07-21 01:37:00,
2013-07-20 18:42:00,77.0,25.9,24.89,South,175,0.0,0.0,15,-99.99,,---,-99.99,VWS V14.01,2013-07-21 01:42:00,
2013-07-20 18:47:00,76.3,25.3,24.89,South,175,0.0,0.0,15,-99.99,,---,-99.99,VWS V14.01,2013-07-21 01:47:00,
2013-07-20 18:53:00,75.0,25.8,24.89,SSE,150,0.0,0.0,16,-99.99,,---,-99.99,VWS V14.01,2013-07-21 01:53:00,
2013-07-20 18:58:00,75.0,25.8,24.89,SSW,211,0.0,0.0,16,-99.99,,---,-99.99,VWS V14.01,2013-07-21 01:58:00,
2013-07-20 19:03:00,74.5,25.4,24.89,SSW,196,0.0,0.0,16,-99.99,,---,-99.99,VWS V14.01,2013-07-21 02:03:00,
2013-07-20 19:08:00,73.6,19.8,24.89,SSW,196,0.0,0.0,13,-99.99,,---,-99.99,VWS V14.01,2013-07-21 02:08:00,
2013-07-20 19:13:00,73.0,21.1,24.89,SSW,194,0.0,0.0,14,-99.99,,---,-99.99,VWS V14.01,2013-07-21 02:13:00,
2013-07-20 19:18:00,72.5,20.6,24.89,SSW,208,0.0,0.0,14,-99.99,,---,-99.99,VWS V14.01,2013-07-21 02:18:00,
2013-07-20 19:23:00,72.1,20.4,24.89,SSW,208,0.0,0.0,14,-99.99,,---,-99.99,VWS V14.01,2013-07-21 02:23:00,
2013-07-20 19:28:00,70.9,19.4,24.89,SSW,197,0.0,0.0,14,-99.99,,---,-99.99,VWS V14.01,2013-07-21 02:28:00,
2013-07-20 19:33:00,70.9,19.4,24.89,SSW,197,0.0,0.0,14,-99.99,,---,-99.99,VWS V14.01,2013-07-21 02:33:00,
2013-07-20 19:38:00,69.8,18.5,24.89,SSW,197,0.0,0.0,14,-99.99,,---,-99.99,VWS V14.01,2013-07-21 02:38:00,
2013-07-20 19:43:00,69.8,18.5,24.89,SSW,197,0.0,0.0,14,-99.99,,---,-99.99,VWS V14.01,2013-07-21 02:43:00,
2013-07-20 19:48:00,68.9,19.4,24.89,SSW,211,0.0,0.0,15,-99.99,,---,-99.99,VWS V14.01,2013-07-21 02:48:00,
2013-07-20 19:53:00,68.9,19.4,24.89,SSW,211,0.0,0.0,15,-99.99,,---,-99.99,VWS V14.01,2013-07-21 02:53:00,
2013-07-20 19:58:00,68.9,19.4,24.89,SSW,211,0.0,0.0,15,-99.99,,---,-99.99,VWS V14.01,2013-07-21 02:58:00,
2013-07-20 20:03:00,68.9,19.4,24.89,SSW,211,0.0,0.0,15,-99.99,,---,-99.99,VWS V14.01,2013-07-21 03:03:00,
2013-07-20 20:08:00,68.9,19.4,24.89,SW,228,0.0,0.0,15,-99.99,,---,-99.99,VWS V14.01,2013-07-21 03:08:00,
2013-07-20 20:13:00,66.9,17.8,24.89,SW,228,0.0,0.0,15,-99.99,,---,-99.99,VWS V14.01,2013-07-21 03:13:00,
2013-07-20 20:18:00,66.9,17.8,24.89,SW,228,0.0,0.0,15,-99.99,,---,-99.99,VWS V14.01,2013-07-21 03:18:00,
2013-07-20 20:23:00,66.4,17.4,24.89,SW,229,0.0,0.0,15,-99.99,,---,-99.99,VWS V14.01,2013-07-21 03:23:00,
2013-07-20 20:28:00,66.0,17.1,24.89,SW,229,0.0,0.0,15,-99.99,,---,-99.99,VWS V14.01,2013-07-21 03:28:00,
2013-07-20 20:33:00,66.0,17.1,24.89,SW,229,0.0,0.0,15,-99.99,,---,-99.99,VWS V14.01,2013-07-21 03:33:00,
2013-07-20 20:38:00,66.0,17.1,24.89,SW,229,0.0,0.0,15,-99.99,,---,-99.99,VWS V14.01,2013-07-21 03:38:00,
2013-07-20 20:43:00,66.0,17.1,24.89,SW,229,0.0,0.0,15,-99.99,,---,-99.99,VWS V14.01,2013-07-21 03:43:00,
2013-07-20 20:49:00,66.0,17.1,24.89,SW,229,0.0,0.0,15,-99.99,,---,-99.99,VWS V14.01,2013-07-21 03:49:00,
2013-07-20 20:54:00,66.0,17.1,24.89,SW,229,0.0,0.0,15,-99.99,,---,-99.99,VWS V14.01,2013-07-21 03:54:00,
2013-07-20 20:59:00,66.0,17.1,24.89,SW,229,0.0,0.0,15,-99.99,,---,-99.99,VWS V14.01,2013-07-21 03:59:00,
2013-07-20 21:01:00,66.0,17.1,24.89,SW,229,0.0,0.0,15,-99.99,,---,-99.99,VWS V14.01,2013-07-21 04:01:00,
2013-07-20 21:06:00,65.7,16.8,24.89,SW,229,0.0,0.0,15,-99.99,,---,-99.99,VWS V14.01,2013-07-21 04:06:00,
2013-07-20 21:11:00,65.8,16.9,24.89,SW,229,0.0,0.0,15,-99.99,,---,-99.99,VWS V14.01,2013-07-21 04:11:00,
2013-07-20 21:16:00,65.8,16.9,24.89,SW,229,0.0,0.0,15,-99.99,,---,-99.99,VWS V14.01,2013-07-21 04:16:00,
2013-07-20 21:21:00,65.1,16.4,24.89,SW,229,0.0,0.0,15,-99.99,,---,-99.99,VWS V14.01,2013-07-21 04:21:00,
2013-07-20 21:26:00,65.1,16.4,24.89,SW,229,0.0,0.0,15,-99.99,,---,-99.99,VWS V14.01,2013-07-21 04:26:00,
2013-07-20 21:31:00,65.1,16.4,24.89,SW,229,0.0,0.0,15,-99.99,,---,-99.99,VWS V14.01,2013-07-21 04:31:00,
2013-07-20 21:36:00,65.1,16.4,24.89,SW,229,0.0,0.0,15,-99.99,,---,-99.99,VWS V14.01,2013-07-21 04:36:00,
2013-07-20 21:41:00,65.1,16.4,24.89,SW,229,0.0,0.0,15,-99.99,,---,-99.99,VWS V14.01,2013-07-21 04:41:00,
2013-07-20 21:46:00,65.1,16.4,24.89,SW,229,0.0,0.0,15,-99.99,,---,-99.99,VWS V14.01,2013-07-21 04:46:00,
2013-07-20 21:51:00,65.1,16.4,24.89,SW,229,0.0,0.0,15,-99.99,,---,-99.99,VWS V14.01,2013-07-21 04:51:00,
2013-07-20 21:56:00,65.1,16.4,24.89,SW,229,0.0,0.0,15,-99.99,,---,-99.99,VWS V14.01,2013-07-21 04:56:00,
2013-07-20 22:01:00,65.1,16.4,24.89,SW,229,0.0,0.0,15,-99.99,,---,-99.99,VWS V14.01,2013-07-21 05:01:00,
2013-07-20 22:06:00,64.4,15.8,24.89,SW,229,0.0,0.0,15,-99.99,,---,-99.99,VWS V14.01,2013-07-21 05:06:00,
2013-07-20 22:11:00,64.0,17.0,24.89,SW,229,0.0,0.0,16,-99.99,,---,-99.99,VWS V14.01,2013-07-21 05:11:00,
2013-07-20 22:16:00,64.0,17.0,24.89,SW,229,0.0,0.0,16,-99.99,,---,-99.99,VWS V14.01,2013-07-21 05:16:00,
2013-07-20 22:21:00,63.7,16.7,24.89,SW,229,0.0,0.0,16,-99.99,,---,-99.99,VWS V14.01,2013-07-21 05:21:00,
2013-07-20 22:26:00,63.5,16.5,24.89,SW,229,0.0,0.0,16,-99.99,,---,-99.99,VWS V14.01,2013-07-21 05:26:00,
2013-07-20 22:31:00,63.0,16.1,24.89,SW,229,0.0,0.0,16,-99.99,,---,-99.99,VWS V14.01,2013-07-21 05:31:00,
2013-07-20 22:36:00,63.0,16.1,24.89,SW,229,0.0,0.0,16,-99.99,,---,-99.99,VWS V14.01,2013-07-21 05:36:00,
2013-07-20 22:41:00,63.1,16.2,24.89,SW,229,0.0,0.0,16,-99.99,,---,-99.99,VWS V14.01,2013-07-21 05:41:00,
2013-07-20 22:46:00,63.1,16.2,24.89,SW,229,0.0,0.0,16,-99.99,,---,-99.99,VWS V14.01,2013-07-21 05:46:00,
2013-07-20 22:51:00,63.1,16.2,24.89,SW,229,0.0,0.0,16,-99.99,,---,-99.99,VWS V14.01,2013-07-21 05:51:00,
2013-07-20 22:56:00,62.8,15.9,24.89,SW,229,0.0,0.0,16,-99.99,,---,-99.99,VWS V14.01,2013-07-21 05:56:00,
2013-07-20 23:01:00,62.8,15.9,24.89,WSW,253,0.0,0.0,16,-99.99,,---,-99.99,VWS V14.01,2013-07-21 06:01:00,
2013-07-20 23:06:00,63.1,16.2,24.89,WSW,253,0.0,0.0,16,-99.99,,---,-99.99,VWS V14.01,2013-07-21 06:06:00,
2013-07-20 23:11:00,63.3,16.4,24.89,West,266,0.0,0.0,16,-99.99,,---,-99.99,VWS V14.01,2013-07-21 06:11:00,
2013-07-20 23:16:00,63.3,16.4,24.89,West,266,0.0,0.0,16,-99.99,,---,-99.99,VWS V14.01,2013-07-21 06:16:00,
2013-07-20 23:21:00,63.1,16.2,24.89,West,266,0.0,0.0,16,-99.99,,---,-99.99,VWS V14.01,2013-07-21 06:21:00,
2013-07-20 23:26:00,63.1,16.2,24.89,West,266,0.0,0.0,16,-99.99,,---,-99.99,VWS V14.01,2013-07-21 06:26:00,
2013-07-20 23:31:00,63.1,16.2,24.89,West,266,0.0,0.0,16,-99.99,,---,-99.99,VWS V14.01,2013-07-21 06:31:00,
2013-07-20 23:36:00,63.0,16.1,24.89,West,266,0.0,0.0,16,-99.99,,---,-99.99,VWS V14.01,2013-07-21 06:36:00,
2013-07-20 23:41:00,63.0,16.1,24.89,West,266,0.0,0.0,16,-99.99,,---,-99.99,VWS V14.01,2013-07-21 06:41:00,
2013-07-20 23:46:00,62.8,15.9,24.89,West,266,0.0,0.0,16,-99.99,,---,-99.99,VWS V14.01,2013-07-21 06:46:00,
2013-07-20 23:51:00,62.8,15.9,24.89,West,266,0.0,0.0,16,-99.99,,---,-99.99,VWS V14.01,2013-07-21 06:51:00,
2013-07-20 23:57:00,62.8,15.9,24.89,West,266,0.0,0.0,16,-99.99,,---,-99.99,VWS V14.01,2013-07-21 06:57:00,